Weather History for Chippewa, MI

Change the Weather History Date:

Wednesday, February 20, 2013

  Actual Average Record
Temperature  
Mean Temperature 6 °F -  
Max Temperature 10 °F 31 °F 48 °F (1983)
Min Temperature 3 °F 10 °F -19 °F (1993)
Degree Days  
Heating Degree Days 58    
Moisture  
Dew Point 5 °F    
Average Humidity 88    
Maximum Humidity 100    
Minimum Humidity 78    
Precipitation  
Precipitation 0.00 in - - ()
Sea Level Pressure  
Sea Level Pressure 30.05 in    
Wind  
Wind Speed 17 mph (NNW)    
Max Wind Speed 23 mph    
Max Gust Speed 31 mph    
Visibility 5 miles    
Events      
Averages and records for this station are not official NWS values.
T = Trace of Precipitation, MM = Missing Value Source: NWS Daily Summary

Daily Weather History Graph

Daily Weather History Graph

Search for Another Location

Airport:

Trip Planner

Search our weather history database for the weather conditions in past years. The results will help you decide how hot, cold, wet, or windy it might be!

Date:

Astronomy

Feb. 20, 2013 Rise Set
Actual Time 7:32 AM EST 6:11 PM EST
Civil Twilight 7:01 AM EST 6:42 PM EST
Nautical Twilight 6:26 AM EST 7:17 PM EST
Astronomical Twilight 5:52 AM EST 7:51 PM EST
Moon 1:21 PM EST (2/20) 4:02 AM EST (2/20)
Length of Visible Light 11h 40m
Length of Day
10h 39m
Waxing Gibbous, 76% of the Moon is Illuminated
Feb 20
Waxing Gibbous
Feb 25
Full
Mar 4
Last Quarter
Mar 11
New
Mar 19
First Quarter

Hourly Weather History & Observations

Time (EST) Temp. Windchill Dew Point Humidity Pressure Visibility Wind Dir Wind Speed Gust Speed Precip Events Conditions
12:15 AM 8.6 °F -8.3 °F 6.8 °F 92% 29.76 in 1.0 mi NNW 15.0 mph 18.4 mph N/A   Overcast
12:35 AM 8.6 °F -10.5 °F 8.6 °F 100% 29.76 in 1.0 mi NNW 19.6 mph 23.0 mph N/A   Overcast
12:55 AM 8.6 °F -8.9 °F 6.8 °F 92% 29.78 in 2.0 mi NNW 16.1 mph 25.3 mph N/A   Overcast
1:15 AM 8.6 °F -10.5 °F 6.8 °F 92% 29.78 in 1.0 mi NW 19.6 mph 24.2 mph N/A   Overcast
1:35 AM 8.6 °F -8.9 °F 8.6 °F 100% 29.79 in 1.0 mi NW 16.1 mph 20.7 mph N/A   Overcast
1:55 AM 8.6 °F -10.5 °F 8.6 °F 100% 29.80 in 0.8 mi NW 19.6 mph 24.2 mph N/A   Overcast
2:15 AM 8.6 °F -11.0 °F 6.8 °F 92% 29.81 in 1.0 mi NW 20.7 mph 29.9 mph N/A   Overcast
2:35 AM 8.6 °F -10.5 °F 6.8 °F 92% 29.82 in 1.2 mi NW 19.6 mph 26.5 mph N/A   Overcast
2:55 AM 8.6 °F -11.4 °F 6.8 °F 92% 29.83 in 1.2 mi NW 21.9 mph 31.1 mph N/A   Overcast
3:15 AM 8.6 °F -11.9 °F 6.8 °F 92% 29.83 in 1.2 mi NW 23.0 mph 29.9 mph N/A   Overcast
3:35 AM 8.6 °F -11.0 °F 6.8 °F 92% 29.84 in 2.0 mi NW 20.7 mph 26.5 mph N/A   Overcast
4:15 AM 6.8 °F -12.4 °F 6.8 °F 100% 29.87 in 1.5 mi NNW 18.4 mph 27.6 mph N/A   Overcast
4:35 AM 6.8 °F -12.9 °F 5.0 °F 92% 29.88 in 1.2 mi NW 19.6 mph 28.8 mph N/A   Overcast
4:55 AM 6.8 °F -11.8 °F 5.0 °F 92% 29.89 in 1.8 mi NW 17.3 mph 28.8 mph N/A   Overcast
5:15 AM 6.8 °F -11.3 °F 5.0 °F 92% 29.91 in 1.2 mi NNW 16.1 mph 25.3 mph N/A   Overcast
5:35 AM 6.8 °F -12.4 °F 3.2 °F 85% 29.91 in 2.0 mi NNW 18.4 mph 24.2 mph N/A   Overcast
5:55 AM 6.8 °F -11.3 °F 3.2 °F 85% 29.92 in 3.0 mi NNW 16.1 mph 21.9 mph N/A   Overcast
6:15 AM 5.0 °F -13.6 °F 3.2 °F 92% 29.94 in 6.0 mi NNW 16.1 mph 25.3 mph N/A   Overcast
6:35 AM 5.0 °F -14.2 °F 1.4 °F 85% 29.95 in 5.0 mi NNW 17.3 mph 24.2 mph N/A   Overcast
6:55 AM 3.2 °F -15.9 °F 1.4 °F 92% 29.96 in 7.0 mi NNW 16.1 mph 25.3 mph N/A   Overcast
7:15 AM 3.2 °F -16.5 °F 1.4 °F 92% 29.97 in 7.0 mi NNW 17.3 mph 24.2 mph N/A   Overcast
7:35 AM 3.2 °F -17.6 °F 1.4 °F 92% 29.98 in 6.0 mi NNW 19.6 mph 25.3 mph N/A   Overcast
7:55 AM 3.2 °F -15.3 °F 1.4 °F 92% 30.01 in 7.0 mi NNW 15.0 mph 25.3 mph N/A   Overcast
8:15 AM 3.2 °F -17.1 °F -0.4 °F 85% 30.01 in 4.0 mi NNW 18.4 mph 26.5 mph N/A   Overcast
8:35 AM 3.2 °F -17.1 °F -0.4 °F 85% 30.02 in 5.0 mi NNW 18.4 mph 24.2 mph N/A   Overcast
8:55 AM 3.2 °F -13.9 °F -0.4 °F 85% 30.03 in 8.0 mi NNW 12.7 mph - N/A   Overcast
9:15 AM 3.2 °F -12.2 °F -0.4 °F 85% 30.04 in 10.0 mi NNW 10.4 mph 17.3 mph N/A   Overcast
9:35 AM 3.2 °F -13.9 °F 1.4 °F 92% 30.04 in 8.0 mi NNW 12.7 mph 20.7 mph N/A   Overcast
9:55 AM 5.0 °F -14.2 °F 1.4 °F 85% 30.05 in 3.0 mi NNW 17.3 mph 25.3 mph N/A   Overcast
10:15 AM 5.0 °F -13.6 °F -0.4 °F 78% 30.06 in 5.0 mi North 16.1 mph 21.9 mph N/A   Overcast
10:35 AM 5.0 °F -15.2 °F 1.4 °F 85% 30.06 in 5.0 mi NNW 19.6 mph 24.2 mph N/A   Overcast
10:55 AM 5.0 °F -15.2 °F 1.4 °F 85% 30.06 in 5.0 mi NNW 19.6 mph 25.3 mph N/A   Overcast
11:15 AM 6.8 °F -12.4 °F 1.4 °F 79% 30.07 in 3.0 mi NNW 18.4 mph 28.8 mph N/A   Overcast
11:35 AM 6.8 °F -12.4 °F 3.2 °F 85% 30.08 in 3.0 mi NNW 18.4 mph 24.2 mph N/A   Overcast
11:55 AM 6.8 °F -13.4 °F 3.2 °F 85% 30.08 in 1.8 mi NW 20.7 mph 24.2 mph N/A   Overcast
12:15 PM 8.6 °F -10.0 °F 3.2 °F 79% 30.08 in 1.2 mi NNW 18.4 mph 26.5 mph N/A   Overcast
12:35 PM 8.6 °F -8.3 °F 3.2 °F 79% 30.08 in 2.0 mi NNW 15.0 mph - N/A   Overcast
12:55 PM 8.6 °F -10.0 °F 5.0 °F 85% 30.07 in 0.8 mi NW 18.4 mph - N/A   Overcast
1:15 PM 8.6 °F -9.5 °F 5.0 °F 85% 30.07 in 0.8 mi NW 17.3 mph 24.2 mph N/A   Overcast
1:35 PM 8.6 °F -10.0 °F 5.0 °F 85% 30.08 in 1.2 mi NW 18.4 mph 28.8 mph N/A   Overcast
1:55 PM 8.6 °F -10.0 °F 5.0 °F 85% 30.08 in 1.0 mi NW 18.4 mph - N/A   Overcast
2:15 PM 8.6 °F -10.5 °F 5.0 °F 85% 30.07 in 1.2 mi NW 19.6 mph 26.5 mph N/A   Overcast
2:35 PM 10.4 °F -8.2 °F 6.8 °F 85% 30.08 in 1.5 mi NW 19.6 mph 23.0 mph N/A   Overcast
2:55 PM 8.6 °F -10.5 °F 6.8 °F 92% 30.08 in 1.2 mi NW 19.6 mph 26.5 mph N/A   Overcast
3:15 PM 10.4 °F -6.6 °F 6.8 °F 85% 30.10 in 3.0 mi NW 16.1 mph 25.3 mph N/A   Overcast
3:35 PM 10.4 °F -8.2 °F 6.8 °F 85% 30.09 in 1.0 mi NW 19.6 mph 24.2 mph N/A   Overcast
3:55 PM 10.4 °F -7.7 °F 6.8 °F 85% 30.10 in 1.5 mi NW 18.4 mph 23.0 mph N/A   Overcast
4:15 PM 10.4 °F -6.0 °F 8.6 °F 92% 30.11 in 1.5 mi NW 15.0 mph 21.9 mph N/A   Overcast
4:35 PM 10.4 °F -8.6 °F 6.8 °F 85% 30.11 in 1.5 mi NW 20.7 mph - N/A   Overcast
4:55 PM 10.4 °F -8.6 °F 8.6 °F 92% 30.11 in 1.8 mi NW 20.7 mph 29.9 mph N/A   Overcast
5:15 PM 10.4 °F -8.6 °F 8.6 °F 92% 30.13 in 3.0 mi NW 20.7 mph 25.3 mph N/A   Overcast
5:35 PM 10.4 °F -4.8 °F 8.6 °F 92% 30.14 in 5.0 mi NW 12.7 mph 19.6 mph N/A   Overcast
5:55 PM 10.4 °F -7.2 °F 8.6 °F 92% 30.15 in 4.0 mi NW 17.3 mph 21.9 mph N/A   Overcast
6:15 PM 10.4 °F -4.8 °F 8.6 °F 92% 30.17 in 7.0 mi NW 12.7 mph 23.0 mph N/A   Overcast
6:35 PM 10.4 °F -6.0 °F 8.6 °F 92% 30.18 in 10.0 mi NNW 15.0 mph - N/A   Overcast
6:55 PM 10.4 °F -6.0 °F 8.6 °F 92% 30.19 in 10.0 mi NW 15.0 mph 20.7 mph N/A   Overcast
7:15 PM 10.4 °F -5.4 °F 8.6 °F 92% 30.20 in 9.0 mi NNW 13.8 mph 20.7 mph N/A   Overcast
7:35 PM 10.4 °F -7.2 °F 8.6 °F 92% 30.20 in 10.0 mi NNW 17.3 mph 21.9 mph N/A   Overcast
7:55 PM 10.4 °F -8.6 °F 8.6 °F 92% 30.21 in 8.0 mi NW 20.7 mph 26.5 mph N/A   Overcast
8:15 PM 10.4 °F -8.6 °F 6.8 °F 85% 30.21 in 5.0 mi NNW 20.7 mph 26.5 mph N/A   Overcast
8:35 PM 10.4 °F -7.2 °F 6.8 °F 85% 30.22 in 9.0 mi NNW 17.3 mph 25.3 mph N/A   Overcast
8:55 PM 8.6 °F -8.3 °F 6.8 °F 92% 30.22 in 10.0 mi NNW 15.0 mph 24.2 mph N/A   Overcast
9:15 PM 8.6 °F -7.0 °F 6.8 °F 92% 30.23 in 10.0 mi North 12.7 mph 18.4 mph N/A   Overcast
9:35 PM 8.6 °F -7.0 °F 5.0 °F 85% 30.23 in 10.0 mi North 12.7 mph 24.2 mph N/A   Overcast
9:55 PM 8.6 °F -5.5 °F 3.2 °F 79% 30.24 in 10.0 mi North 10.4 mph - N/A   Overcast
10:15 PM 6.8 °F -9.3 °F 3.2 °F 85% 30.25 in 10.0 mi North 12.7 mph - N/A   Overcast
10:35 PM 6.8 °F -8.6 °F 3.2 °F 85% 30.25 in 10.0 mi North 11.5 mph 17.3 mph N/A   Overcast
10:55 PM 6.8 °F -9.3 °F 3.2 °F 85% 30.25 in 10.0 mi North 12.7 mph 16.1 mph N/A   Overcast
11:15 PM 6.8 °F -10.7 °F 3.2 °F 85% 30.26 in 10.0 mi North 15.0 mph 21.9 mph N/A   Overcast
11:35 PM 6.8 °F -10.0 °F 3.2 °F 85% 30.26 in 10.0 mi North 13.8 mph 18.4 mph N/A   Overcast
11:55 PM 5.0 °F -12.3 °F 1.4 °F 85% 30.26 in 10.0 mi North 13.8 mph 19.6 mph N/A   Mostly Cloudy